User: anonymous   Login
Location: Mentone
(34.5413°N, 85.5351°W)
Time: 05:44:08
(UTC-05:00)
Language:

Cosmos 2026 Rocket - Orbit

View from above orbital plane
View from above orbital plane
View from above satellite
View from above satellite

Ground track
Ground track

The orbit data is extracted from the following two-line orbital elements,

1 20046U 89042B   17087.84753344 +.00000041 +00000-0 +25581-4 0  9996
2 20046 082.9414 003.0711 0040864 294.9429 064.7485 13.78089446397985
Epoch (UTC): 28 March 2017 20:20:26
Eccentricity: 0.0040864
inclination: 82.9414°
perigee height: 940 km
apogee height: 1001 km
right ascension of ascending node: 3.0711°
argument of perigee: 294.9429°
revolutions per day: 13.78089446
mean anomaly at epoch: 64.7485°
orbit number at epoch: 39798

The dashed part of the orbit path shows where the satellite is in the earth's shadow,  

DLR